Weather Service Report


723 
ASCA42 TJSJ 280811
RWRPR 
PUERTO RICO/U.S. VIRGIN ISLANDS HOURLY WEATHER ROUNDUP
NATIONAL WEATHER SERVICE SAN JUAN PR
400 AM AST FRI NOV 28 2014

PRZ001-004-280900-
PUERTO RICO
  
CITY           SKY/WX    TMP DP  RH WIND       PRES   REMARKS
SAN JUAN LMM   CLEAR     73  72  94 CALM      29.92F                  
PONCE          CLEAR     70  66  88 CALM      29.90S VSB 1            
AGUADILLA      CLEAR     70  64  83 SE5       29.93F                  
CEIBA          CLEAR     72  70  94 CALM      29.94S                  
$$

PRZ006-007-280900-
U.S. VIRGIN ISLANDS
  
CITY           SKY/WX    TMP DP  RH WIND       PRES   REMARKS
$$

HOURLY WEATHER ROUNDUP FOR THE NEWS MEDIA
  
CITY           SKY/WX    TMP DP  RH WIND       PRES   REMARKS
MIAMI          CLEAR     57  42  57 N10       30.18S                  
ORLANDO        CLEAR     48  33  56 N12       30.28F                  
NEW YORK       PTCLDY    32  23  69 W10       30.09R WCI  24          
NEWARK         PTCLDY    29  22  75 NW6       30.10R WCI  23          
CHICAGO        MOCLDY    19  11  70 CALM      30.37R                  
HARTFORD       CLOUDY    30  28  92 VRB5      29.96F WCI  25          
BOSTON         LGT SNOW  30  28  92 NW9       30.00S VSB 1   WCI  22  
DALLAS         CLEAR     46  28  49 S9        30.32F                  
PHILADELPHIA   MOCLDY    34  27  75 W6        30.14R WCI  29          

Return to Home page


Western Regional Climate Center, wrcc@dri.edu